Regional Weather Roundup
Issued by NWS Albany, NY

Home | Current Version | Previous Version | Text Only | Print | Product List | Glossary On
Versions: 1 2 3 4 5 6 7 8 9 10 11 12 13 14 15 16 17 18 19 20 21 22 23 24 25 26 27 28 29 30 31 32 33 34 35 36 37 38 39 40 41 42 43 44 45 46 47 48 49 50
834
ASUS41 KALY 202010
RWRALY

NEW YORK STATE HOURLY WEATHER ROUNDUP
NATIONAL WEATHER SERVICE ALBANY NY
300 PM EST FRI JAN 20 2017

NOTE: "FAIR" INDICATES FEW OR NO CLOUDS BELOW 12,000 FEET WITH NO
SIGNIFICANT WEATHER AND/OR NO OBSTRUCTIONS TO VISIBILITY.

NYZ032-033-038>043-046>054-057>066-NYZ062>081-082-084-202100-
EAST


CITY           SKY/WX    TMP DP  RH WIND       PRES   REMARKS
ALBANY         CLOUDY    40  31  70 S10       29.92S WCI  33
GLENS FALLS    NOT AVBL
POUGHKEEPSIE   CLOUDY    42  32  67 S5        29.91F
NEWBURGH       CLOUDY    41  34  75 E6        29.92F
MONTGOMERY     CLOUDY    43  33  68 SW7       29.89F
WHITE PLAINS   CLOUDY    41  32  70 SE3       29.92S
ISLIP          CLOUDY    43  34  70 SE8       29.93F
NEW YORK CITY  CLOUDY    44  34  67 NE7       29.93S
CENTRAL PARK   CLOUDY    45  34  65 S3        29.95S
$$

NYZ005>009-017-018-044>046-055-056-202100-
CENTRAL


CITY           SKY/WX    TMP DP  RH WIND       PRES   REMARKS
FULTON         CLOUDY    41  34  76 SE6       29.78F
SYRACUSE       CLOUDY    42  35  76 E8        29.79S
ROME           CLOUDY    38  33  82 E8        29.85F WCI  32
ELMIRA         LGT RAIN  41  36  82 CALM      29.77F
BINGHAMTON     LGT RAIN  35  34  96 S8        29.78F FOG     WCI  29
MONTICELLO     CLOUDY    36  32  87 S7        29.87F WCI  30
$$

NYZ026>034-041>043-087-202100-
NORTH


CITY           SKY/WX    TMP DP  RH WIND       PRES   REMARKS
WATERTOWN      CLOUDY    42  35  76 SE7       29.81S
FORT DRUM      NOT AVBL
OGDENSBURG     CLOUDY    38  32  80 E5        29.84F WCI  34
MASSENA        CLOUDY    37  31  78 NE7       29.87F WCI  32
SARANAC LAKE   CLOUDY    34  30  85 CALM      29.79F
PLATTSBURGH    CLOUDY    37  30  75 SE15      29.88F WCI  28
$$

NYZ001>004-010>016-019>021-085-202100-
WEST


CITY           SKY/WX    TMP DP  RH WIND       PRES   REMARKS
NIAGARA FALLS  LGT RAIN  43  38  82 E3        29.71R
BUFFALO        LGT RAIN  42  39  89 NE5       29.70S FOG
DUNKIRK        LGT RAIN  41  40  96 CALM      29.70R FOG
JAMESTOWN      CLOUDY    41  39  93 S8        29.69R
WELLSVILLE     LGT RAIN  41  38  89 S8        29.72S FOG
ROCHESTER      CLOUDY    46  38  73 S8        29.73S
PENN YAN       LGT RAIN  43  35  73 S8        29.75S
$$

             KEY
       WCI = WIND CHILL INDEX
       VSB = VISIBILITY
       HX  = HEAT INDEX
$$




USA.gov is the U.S. government's official web portal to all federal, state and local government web resources and services.